Williston, ND

4:20 AM CST on December 09, 2019 (GMT -0600)
Sloulin International

Weather History for KISN - August, 2019

Change the Weather History Date:

Sunday, August 25, 2019

  Actual Average Record
Temperature  
Mean Temperature 71 °F 66 °F  
Max Temperature 84 °F 82 °F 101 °F (1952)
Min Temperature 57 °F 52 °F 35 °F (1934)
Degree Days  
Heating Degree Days 0 2  
Month to date heating degree days 19 31  
Since 1 June heating degree days 104 175  
Since 1 July heating degree days 34 55  
Cooling Degree Days 6 4  
Month to date cooling degree days 132 147  
Year to date cooling degree days 376 410  
Since 1 June cooling degree days 370 397  
Growing Degree Days 20 (Base 50)    
Moisture  
Dew Point 56 °F    
Average Humidity 61    
Maximum Humidity 90    
Minimum Humidity 32    
Precipitation  
Precipitation T in 0.04 in 1.76 in (1960)
Month to date precipitation 1.94 1.18  
Year to date precipitation 11.60 10.85  
Sea Level Pressure  
Sea Level Pressure 29.70 in    
Wind  
Wind Speed 9 mph (WNW)    
Max Wind Speed 22 mph    
Max Gust Speed 37 mph    
Visibility 10 miles    
Events      
T = Trace of Precipitation, MM = Missing Value Source: NWS Daily Summary

Daily Weather History Graph

Daily Weather History Graph

Search for Another Location

Airport or City:

Astronomy

Aug. 25, 2019 Rise Set
Actual Time 7:02 AM CDT 8:49 PM CDT
Civil Twilight 6:29 AM CDT 9:22 PM CDT
Nautical Twilight 5:48 AM CDT 10:03 PM CDT
Astronomical Twilight 5:03 AM CDT 10:47 PM CDT
Moon 1:24 AM CDT (8/25) 5:29 PM CDT (8/25)
Length of Visible Light 14h 53m
Length of Day
13h 47m
Waning Crescent, 29% of the Moon is Illuminated
Aug 25
Waning Crescent
Aug 30
New
Sep 5
First Quarter
Sep 13
Full
Sep 21
Last Quarter

Hourly Weather History & Observations

Time (CDT) Temp. Heat Index Dew Point Humidity Pressure Visibility Wind Dir Wind Speed Gust Speed Precip Events Conditions
12:52 AM 71.1 °F - 60.1 °F 68% 29.68 in 10.0 mi Calm Calm - N/A   Partly Cloudy
1:52 AM 66.9 °F - 57.9 °F 73% 29.67 in 10.0 mi North 8.1 mph - N/A   Clear
2:52 AM 62.1 °F - 57.0 °F 84% 29.65 in 10.0 mi Calm Calm - N/A   Clear
3:52 AM 59.0 °F - 55.9 °F 90% 29.65 in 10.0 mi Calm Calm - N/A   Clear
4:52 AM 60.1 °F - 57.0 °F 90% 29.65 in 10.0 mi Calm Calm - N/A   Clear
5:52 AM 62.1 °F - 57.9 °F 86% 29.67 in 10.0 mi East 4.6 mph - N/A   Overcast
6:52 AM 64.0 °F - 59.0 °F 84% 29.69 in 10.0 mi WSW 5.8 mph - N/A   Mostly Cloudy
7:52 AM 64.0 °F - 57.9 °F 80% 29.68 in 10.0 mi NNE 5.8 mph - 0.00 in   Clear
8:52 AM 66.9 °F - 59.0 °F 76% 29.69 in 10.0 mi NE 6.9 mph - N/A   Partly Cloudy
9:52 AM 66.9 °F - 59.0 °F 76% 29.70 in 10.0 mi Calm Calm - N/A   Scattered Clouds
10:52 AM 72.0 °F - 60.1 °F 66% 29.68 in 10.0 mi SSE 4.6 mph - 0.00 in   Mostly Cloudy
11:52 AM 78.1 °F - 60.1 °F 54% 29.69 in 10.0 mi WNW 4.6 mph - N/A   Partly Cloudy
12:52 PM 82.0 °F 81.7 °F 57.0 °F 42% 29.68 in 10.0 mi WSW 10.4 mph - N/A   Partly Cloudy
1:52 PM 82.0 °F - 50.0 °F 33% 29.68 in 10.0 mi West 16.1 mph 23.0 mph N/A   Clear
2:52 PM 84.0 °F - 52.0 °F 33% 29.68 in 10.0 mi WSW 20.7 mph 28.8 mph N/A   Partly Cloudy
3:52 PM 82.0 °F 81.3 °F 54.0 °F 38% 29.69 in 10.0 mi West 20.7 mph 34.5 mph N/A   Partly Cloudy
4:52 PM 79.0 °F - 53.1 °F 40% 29.70 in 10.0 mi WNW 19.6 mph 33.4 mph N/A   Partly Cloudy
5:52 PM 77.0 °F - 54.0 °F 45% 29.71 in 10.0 mi NW 18.4 mph - N/A   Clear
6:52 PM 75.9 °F - 51.1 °F 42% 29.71 in 10.0 mi WNW 18.4 mph - N/A   Clear
7:52 PM 73.0 °F - 48.9 °F 42% 29.72 in 10.0 mi WNW 13.8 mph - N/A   Clear
8:52 PM 66.0 °F - 50.0 °F 56% 29.74 in 10.0 mi West 6.9 mph - N/A   Clear
9:52 PM 64.0 °F - 52.0 °F 65% 29.78 in 10.0 mi NNW 8.1 mph - N/A   Clear
10:52 PM 63.0 °F - 52.0 °F 67% 29.81 in 10.0 mi NW 9.2 mph - N/A   Clear
11:52 PM 62.1 °F - 54.0 °F 75% 29.81 in 10.0 mi NNW 13.8 mph - N/A   Clear